Tracking 29933 objects as of 2-Dec-2024
HD Live streaming from Space Station
objects crossing your sky now

STARLINK-30828

Track STARLINK-30828 now!
10-day predictions
STARLINK-30828 is classified as:


NORAD ID: 58671
Int'l Code: 2023-211E
Perigee: 494.7 km
Apogee: 495.8 km
Inclination: 43.0 °
Period: 94.4 minutes
Semi major axis: 6866 km
RCS: Unknown
Launch date: December 29, 2023
Source: United States (US)
Launch site: AIR FORCE EASTERN TEST RANGE (AFETR)
Your satellite tracking list
Your tracking list is empty




NASA's NSSDC Master Catalog

Two Line Element Set (TLE):
1 58671U 23211E   24336.84728785  .00000254  00000-0  19554-4 0  9992
2 58671  42.9993 176.1778 0000812 277.4653  82.6106 15.25901378 51715
Source of the keplerian elements: AFSPC